This is the latest recevied weather packets stored in our database for station/object K7KAZ. If no packets are shown the sender has not sent any weather packets the latest 10 day(s).
| Time | Temp. | Humidity | Pressure | Rain* | Wind** | Luminosity | Snow |
|---|---|---|---|---|---|---|---|
| 1777417439 | 27.78° C | 17% | 1016.2 hPa | 0 mm | - | 407 W/m² | - |
| 1777417136 | 27.78° C | 17% | 1016.2 hPa | 0 mm | - | 443 W/m² | - |
| 1777416832 | 27.22° C | 18% | 1016.4 hPa | 0 mm | - | 493 W/m² | - |
| 1777416528 | 27.22° C | 18% | 1016.4 hPa | 0 mm | - | 492 W/m² | - |
| 1777416224 | 27.22° C | 18% | 1016.3 hPa | 0 mm | - | 499 W/m² | - |
| 1777415923 | 27.22° C | 18% | 1016.4 hPa | 0 mm | - | 428 W/m² | - |
| 1777415619 | 27.22° C | 18% | 1016.5 hPa | 0 mm | - | 560 W/m² | - |
| 1777415315 | 27.78° C | 18% | 1016.5 hPa | 0 mm | - | 502 W/m² | - |
| 1777415010 | 27.22° C | 18% | 1016.5 hPa | 0 mm | - | 552 W/m² | - |
| 1777414709 | 27.78° C | 18% | 1016.6 hPa | 0 mm | - | 543 W/m² | - |
| 1777414406 | 27.78° C | 18% | 1016.7 hPa | 0 mm | - | 637 W/m² | - |
| 1777414105 | 27.78° C | 18% | 1016.8 hPa | 0 mm | - | 489 W/m² | - |
| 1777413800 | 26.67° C | 19% | 1016.9 hPa | 0 mm | - | 613 W/m² | - |
| 1777413495 | 26.67° C | 18% | 1016.9 hPa | 0 mm | - | 497 W/m² | - |
| 1777413192 | 26.67° C | 18% | 1017.1 hPa | 0 mm | - | 630 W/m² | - |
| 1777412887 | 27.22° C | 18% | 1017.2 hPa | 0 mm | - | 653 W/m² | - |
| 1777412582 | 27.22° C | 18% | 1016.8 hPa | 0 mm | - | 635 W/m² | - |
| 1777412278 | 27.22° C | 17% | 1017.2 hPa | 0 mm | - | 640 W/m² | - |
| 1777411975 | 26.11° C | 17% | 1017.3 hPa | 0 mm | - | 659 W/m² | - |
| 1777411674 | 26.11° C | 18% | 1017.3 hPa | 0 mm | - | 672 W/m² | - |
| 1777411369 | 26.67° C | 18% | 1017.3 hPa | 0 mm | - | 697 W/m² | - |
| 1777411069 | 27.22° C | 17% | 1017.6 hPa | 0 mm | - | 712 W/m² | - |
| 1777410764 | 26.67° C | 18% | 1017.6 hPa | 0 mm | - | 710 W/m² | - |
| 1777410462 | 26.11° C | 18% | 1017.5 hPa | 0 mm | - | 570 W/m² | - |
| 1777410162 | 27.22° C | 18% | 1017.6 hPa | 0 mm | - | 697 W/m² | - |
* Rain latest hour (hover to see other rain measurements)
** Current wind speed in m/s (hover to see current wind gust speed)